Weather in Naryshkino

Russia / Tula Oblast     53°41′26″N   37°37′58″E
temp.,
°C
wind,
m/s
gust,
m/s
humid.,
%
clouds,
%
prec.,
mm/h
press.,
hPa
HPBL,
m
15 may, sat
sat1500:00+15sse41095100 3.5 1010202
03:00+14sse359686 5.6 1009104
06:00+15s369713 0.1 1008129
09:00+19ssw6107914 0.1 1009662
12:00+21ssw686296 0.0 10101259
15:00+21ssw79564 0.0 10101776
18:00+19ssw6106931 0.6 1011963
21:00+15ssw512831 0.6 1011390
16 may, sun
sun1600:00+13ssw411900 0.0 1012301
03:00+12ssw49951 0.0 1013191
06:00+12ssw38915 0.0 1014224
09:00+17ssw577144 0.0 1014558
12:00+20ssw58635 0.0 10151226
15:00+21ssw58603 0.3 10141700
18:00+21wsw356690 0.0 1014354
21:00+16n118067 0.0 101511
17 may, mon
mon1700:00+14ene338245 0.0 101425
03:00+13ene368956 0.0 1014102
06:00+14e4118932 0.4 1014246
09:00+19e69759 0.4 1013434
12:00+24ese710595 0.0 1012798
15:00+25ese611560 0.0 10101190
18:00+23ese713655 0.0 1009666
21:00+19ese6167795 0.0 1009428
18 may, tue
tue1800:00+18se6157283 0.0 1008394
03:00+16se51373100 0.0 1007301
06:00+15se5137999 0.0 1007302
09:00+19se71370100 0.0 1007528
12:00+22sse8136895 0.0 10061202
15:00+23sse81267100 0.3 10061580
18:00+20s6117569 0.3 1006954
21:00+16sse310885 0.3 1007260
19 may, wed
wed1900:00+15sse41289100 0.0 1006308
03:00+14se41093100 0.0 1005210
06:00+15se6138877 0.1 1004394
09:00+18sse81379100 0.8 10031188
12:00+14s91492100 3.5 1003888
15:00+16s81281100 5.7 10021039
18:00+15ssw710837 2.5 1002898
21:00+11wsw71290100 3.1 1006809